Regional Weather Roundup
Issued by NWS

Home | Current Version | Previous Version | Graphics & Text | Print | Product List | Glossary On
Versions: 1 2 3 4 5 6 7 8 9 10 11 12 13 14 15 16 17 18 19 20 21 22 23 24 25 26 27 28 29 30 31 32 33 34 35 36 37 38 39 40 41 42 43 44 45 46 47 48 49 50
000
ASUS44 KMEG 250500
RWRTN
TENNESSEE HOURLY STATE WEATHER ROUNDUP
NATIONAL WEATHER SERVICE MEMPHIS TN
1200 AM CDT MON MAY 25 2015

TNZ002-004-019-021-049-052-054-088>092-250600-
WEST TENNESSEE

CITY           SKY/WX    TMP DP  RH WIND       PRES   REMARKS
MEMPHIS INTL   TSTM      70  67  90 S5        30.04R
NWS MEMPHIS      N/A     69 N/A N/A MISG        N/A
JACKSON        LGT RAIN  70  67  90 SW7       30.05F
DYERSBURG      CLOUDY    70  55  60 S8        30.03F
PARIS          MOCLDY    66  66 100 S10       30.07F
LEXINGTON      CLOUDY    70  66  88 VRB5      30.07S
$$

TNZ008-025-027-028-033-062-065-066-250600-
NORTH MIDDLE TENNESSEE

CITY           SKY/WX    TMP DP  RH WIND       PRES   REMARKS
NASHVILLE      CLOUDY    72  65  78 S13       30.13F
CLARKSVILLE    MOCLDY    70  67  90 SE8       30.08F
COOKEVILLE     MOCLDY    73  59  60 S9        30.18F
CROSSVILLE     CLOUDY    71  54  54 S10G20    30.24F
$$

TNZ061-075-076-078-094-096-097-250600-
SOUTH MIDDLE TENNESSEE

CITY           SKY/WX    TMP DP  RH WIND       PRES   REMARKS
FAYETTEVILLE   MOCLDY   N/A N/A N/A MISG      30.16S
TULLAHOMA      CLEAR     66  63  88 SE6       30.18F
WINCHESTER     CLEAR     70  61  73 SE6       30.17F
MCMINNVILLE    CLEAR     75  59  57 VRB7      30.17F
COLUMBIA       PTCLDY    72  66  83 S9        30.10F
SHELBYVILLE    PTCLDY    70  66  88 SE9       30.16F
$$

TNZ017-018-042-046-047-250600-
NORTHEAST TENNESSEE

CITY           SKY/WX    TMP DP  RH WIND       PRES   REMARKS
TRI CITIES     PTCLDY    66  51  58 CALM      30.28S
ELIZABETHTON   CLEAR     55  52  88 CALM      30.30R
$$

TNZ012-013-036-069-073-074-250600-
CENTRAL EAST TENNESSEE

CITY           SKY/WX    TMP DP  RH WIND       PRES   REMARKS
KNOXVILLE      PTCLDY    70  51  51 SW6       30.22F
OAK RIDGE      PTCLDY    68  55  63 CALM      30.24F
GATLINBURG     CLEAR     61  52  72 CALM      30.22F
$$

TNZ083-085-099-250600-
SOUTHEAST TENNESSEE

CITY           SKY/WX    TMP DP  RH WIND       PRES   REMARKS
CHATTANOOGA    PTCLDY    74  57  55 SE7       30.21F
$$

SKY/WX REPORTED AS FAIR MEANS FEW OR NO CLOUDS BELOW
12 THOUSAND FEET.




USA.gov is the U.S. government's official web portal to all federal, state and local government web resources and services.